DYE318 LIRN-LIMJ

Flight info

Callsign DYE318
Flight time 1h 38m
Altitude 34000
Route VEXUV DCT PNZ DCT LUNAK DCT RAVAL DCT ELB DCT NORNI DCT BETEN/N0396F180 M729 IDONA
Aircraft A320/M-SDE3FGHIRWY/LB1

Departure

Time 2026-04-22 04:02
Airport Naples International Airport (LIRN)

Arrival

Time 2026-04-22 05:40
Airport Genoa Cristoforo Colombo Airport (LIMJ)
Time Latitude Longitude Altitude Speed Heading
2026-04-22 03:37 40.88016 14.28310 289 ft 0 kts 334°
2026-04-22 03:56 40.88042 14.28311 290 ft 8 kts 28°
2026-04-22 03:56 40.88056 14.28373 287 ft 7 kts 92°
2026-04-22 03:56 40.88051 14.28438 286 ft 7 kts 95°
2026-04-22 03:56 40.88046 14.28503 285 ft 7 kts 98°
2026-04-22 03:57 40.88039 14.28567 284 ft 7 kts 94°
2026-04-22 03:57 40.88055 14.28626 283 ft 7 kts 57°
2026-04-22 03:57 40.88086 14.28676 282 ft 7 kts 52°
2026-04-22 03:57 40.88144 14.28777 279 ft 21 kts 53°
2026-04-22 03:58 40.88237 14.28937 275 ft 21 kts 52°
2026-04-22 03:58 40.88327 14.29088 272 ft 22 kts 53°
2026-04-22 03:58 40.88414 14.29245 268 ft 20 kts 52°
2026-04-22 03:58 40.88505 14.29400 263 ft 21 kts 54°
2026-04-22 03:59 40.88600 14.29564 259 ft 22 kts 52°
2026-04-22 03:59 40.88695 14.29729 254 ft 23 kts 52°
2026-04-22 03:59 40.88790 14.29893 249 ft 21 kts 52°
2026-04-22 03:59 40.88883 14.30056 243 ft 22 kts 54°
2026-04-22 04:00 40.88940 14.30152 240 ft 17 kts 47°
2026-04-22 04:00 40.89046 14.30128 238 ft 8 kts 327°
2026-04-22 04:00 40.89068 14.30084 238 ft 4 kts 274°
2026-04-22 04:00 40.89066 14.30066 239 ft 0 kts 259°
2026-04-22 04:01 40.89039 14.29998 241 ft 37 kts 237°
2026-04-22 04:01 40.88757 14.29401 259 ft 116 kts 238°
2026-04-22 04:01 40.88201 14.28242 324 ft 172 kts 240°
2026-04-22 04:01 40.87780 14.27328 746 ft 178 kts 240°
2026-04-22 04:02 40.86938 14.26187 1399 ft 174 kts 198°
2026-04-22 04:02 40.85764 14.26157 1921 ft 173 kts 162°
2026-04-22 04:02 40.84536 14.26489 2335 ft 188 kts 167°
2026-04-22 04:02 40.83212 14.26746 2857 ft 194 kts 170°
2026-04-22 04:03 40.81865 14.26972 3459 ft 195 kts 171°
2026-04-22 04:03 40.80507 14.27185 4030 ft 198 kts 172°
2026-04-22 04:03 40.79129 14.27394 4602 ft 201 kts 174°
2026-04-22 04:03 40.77760 14.27599 5143 ft 203 kts 175°
2026-04-22 04:04 40.76328 14.27812 5698 ft 206 kts 176°
2026-04-22 04:04 40.74889 14.28028 6232 ft 209 kts 177°
2026-04-22 04:04 40.73422 14.28249 6740 ft 212 kts 177°
2026-04-22 04:04 40.71948 14.28387 7257 ft 212 kts 190°
2026-04-22 04:05 40.70554 14.27882 7756 ft 208 kts 212°
2026-04-22 04:05 40.69379 14.26728 8086 ft 217 kts 226°
2026-04-22 04:05 40.68208 14.25364 8384 ft 232 kts 226°
2026-04-22 04:05 40.66942 14.23904 8685 ft 251 kts 225°
2026-04-22 04:06 40.65602 14.22374 9261 ft 258 kts 225°
2026-04-22 04:06 40.64226 14.20806 9719 ft 273 kts 225°
2026-04-22 04:06 40.62761 14.19133 10250 ft 282 kts 225°
2026-04-22 04:06 40.61249 14.17410 10958 ft 285 kts 226°
2026-04-22 04:07 40.59742 14.15697 11671 ft 288 kts 226°
2026-04-22 04:07 40.58236 14.13992 12371 ft 290 kts 226°
2026-04-22 04:07 40.56694 14.12250 13069 ft 293 kts 226°
2026-04-22 04:07 40.55142 14.10491 13757 ft 296 kts 227°
2026-04-22 04:08 40.53569 14.08706 14365 ft 299 kts 227°
2026-04-22 04:08 40.51990 14.06914 14979 ft 301 kts 227°
2026-04-22 04:08 40.50586 14.04913 15592 ft 296 kts 240°
2026-04-22 04:08 40.49593 14.02575 16198 ft 292 kts 253°
2026-04-22 04:09 40.48891 14.00070 16789 ft 293 kts 254°
2026-04-22 04:09 40.48189 13.97541 17384 ft 296 kts 254°
2026-04-22 04:09 40.47478 13.94989 17980 ft 298 kts 254°
2026-04-22 04:09 40.46756 13.92417 18538 ft 301 kts 254°
2026-04-22 04:10 40.46024 13.89831 19046 ft 303 kts 254°
2026-04-22 04:10 40.45286 13.87226 19555 ft 306 kts 254°
2026-04-22 04:10 40.44542 13.84600 20065 ft 308 kts 254°
2026-04-22 04:10 40.43794 13.81953 20573 ft 310 kts 255°
2026-04-22 04:11 40.43288 13.79223 21072 ft 306 kts 269°
2026-04-22 04:11 40.43391 13.76454 21561 ft 305 kts 283°
2026-04-22 04:11 40.44090 13.73790 21759 ft 315 kts 298°
2026-04-22 04:11 40.45374 13.71387 21898 ft 329 kts 307°
2026-04-22 04:12 40.46843 13.69013 22030 ft 342 kts 307°
2026-04-22 04:12 40.48367 13.66539 22167 ft 354 kts 307°
2026-04-22 04:12 40.49938 13.63980 22297 ft 366 kts 307°
2026-04-22 04:12 40.51559 13.61332 22431 ft 376 kts 307°
2026-04-22 04:13 40.53217 13.58616 22567 ft 386 kts 307°
2026-04-22 04:13 40.54911 13.55834 22699 ft 394 kts 307°
2026-04-22 04:13 40.56638 13.52995 22912 ft 399 kts 307°
2026-04-22 04:13 40.58381 13.50132 23237 ft 402 kts 307°
2026-04-22 04:14 40.60134 13.47255 23588 ft 403 kts 307°
2026-04-22 04:14 40.61900 13.44356 23869 ft 405 kts 307°
2026-04-22 04:14 40.63635 13.41499 24148 ft 406 kts 307°
2026-04-22 04:14 40.65405 13.38583 24428 ft 408 kts 307°
2026-04-22 04:15 40.67176 13.35659 24702 ft 409 kts 307°
2026-04-22 04:15 40.68957 13.32719 24972 ft 411 kts 307°
2026-04-22 04:15 40.70738 13.29771 25227 ft 412 kts 307°
2026-04-22 04:15 40.72548 13.26771 25485 ft 413 kts 307°
2026-04-22 04:16 40.74316 13.23837 25727 ft 414 kts 307°
2026-04-22 04:16 40.77912 13.17865 26193 ft 417 kts 307°
2026-04-22 04:16 40.79721 13.14864 26412 ft 418 kts 307°
2026-04-22 04:17 40.81531 13.11858 26642 ft 419 kts 307°
2026-04-22 04:17 40.83341 13.08841 26836 ft 420 kts 307°
2026-04-22 04:17 40.85148 13.05823 27102 ft 419 kts 307°
2026-04-22 04:17 40.86958 13.02795 27401 ft 417 kts 307°
2026-04-22 04:18 40.88756 12.99789 27722 ft 416 kts 307°
2026-04-22 04:18 40.90547 12.96798 28018 ft 415 kts 307°
2026-04-22 04:18 40.92483 12.93977 28311 ft 415 kts 313°
2026-04-22 04:18 40.94508 12.91257 28608 ft 414 kts 313°
2026-04-22 04:19 40.96521 12.88538 28910 ft 413 kts 313°
2026-04-22 04:19 40.98525 12.85826 29209 ft 412 kts 313°
2026-04-22 04:19 41.00524 12.83122 29514 ft 411 kts 313°
2026-04-22 04:19 41.02524 12.80420 29808 ft 410 kts 313°
2026-04-22 04:20 41.04513 12.77730 30119 ft 408 kts 313°
2026-04-22 04:20 41.06497 12.75039 30372 ft 407 kts 312°
2026-04-22 04:20 41.08476 12.72345 30627 ft 407 kts 312°
2026-04-22 04:20 41.10441 12.69664 30875 ft 406 kts 312°
2026-04-22 04:21 41.12410 12.66982 31116 ft 405 kts 312°
2026-04-22 04:21 41.14374 12.64306 31362 ft 404 kts 312°
2026-04-22 04:21 41.16334 12.61637 31607 ft 404 kts 312°
2026-04-22 04:21 41.18291 12.58971 31854 ft 403 kts 312°
2026-04-22 04:22 41.20244 12.56306 32105 ft 402 kts 312°
2026-04-22 04:22 41.22192 12.53645 32346 ft 401 kts 312°
2026-04-22 04:22 41.24135 12.50990 32588 ft 401 kts 312°
2026-04-22 04:22 41.26102 12.48296 32829 ft 400 kts 312°
2026-04-22 04:23 41.28040 12.45635 33056 ft 400 kts 311°
2026-04-22 04:23 41.29971 12.42981 33294 ft 399 kts 311°
2026-04-22 04:23 41.31899 12.40334 33530 ft 399 kts 311°
2026-04-22 04:23 41.33828 12.37688 33765 ft 398 kts 311°
2026-04-22 04:24 41.35754 12.35043 33938 ft 398 kts 311°
2026-04-22 04:24 41.39625 12.29700 33978 ft 403 kts 311°
2026-04-22 04:25 41.43448 12.24422 33965 ft 403 kts 311°
2026-04-22 04:25 41.47337 12.19044 33967 ft 403 kts 311°
2026-04-22 04:26 41.51224 12.13665 33967 ft 403 kts 311°
2026-04-22 04:26 41.55110 12.08280 33984 ft 402 kts 311°
2026-04-22 04:27 41.58964 12.02921 33989 ft 402 kts 311°
2026-04-22 04:27 41.62862 11.97484 33985 ft 402 kts 311°
2026-04-22 04:28 41.66704 11.92115 33989 ft 402 kts 311°
2026-04-22 04:28 41.70565 11.86713 33998 ft 402 kts 311°
2026-04-22 04:29 41.74416 11.81298 33992 ft 401 kts 311°
2026-04-22 04:29 41.78254 11.75868 33990 ft 401 kts 311°
2026-04-22 04:30 41.82100 11.70431 33989 ft 401 kts 311°
2026-04-22 04:30 41.85949 11.65022 33988 ft 401 kts 311°
2026-04-22 04:31 41.89821 11.59573 33989 ft 401 kts 311°
2026-04-22 04:31 41.93633 11.54184 33995 ft 400 kts 311°
2026-04-22 04:32 41.97468 11.48751 33993 ft 400 kts 311°
2026-04-22 04:32 42.01297 11.43324 33993 ft 400 kts 311°
2026-04-22 04:33 42.05121 11.37891 33993 ft 400 kts 311°
2026-04-22 04:33 42.08939 11.32446 33998 ft 400 kts 311°
2026-04-22 04:34 42.12758 11.26997 33995 ft 399 kts 311°
2026-04-22 04:34 42.16569 11.21558 33998 ft 399 kts 311°
2026-04-22 04:35 42.20372 11.16110 33994 ft 399 kts 311°
2026-04-22 04:35 42.24172 11.10658 33993 ft 399 kts 311°
2026-04-22 04:36 42.27969 11.05206 34002 ft 398 kts 311°
2026-04-22 04:36 42.31756 10.99758 33994 ft 397 kts 311°
2026-04-22 04:37 42.35532 10.94305 33994 ft 397 kts 311°
2026-04-22 04:37 42.39304 10.88851 33997 ft 397 kts 311°
2026-04-22 04:38 42.43078 10.83389 33999 ft 397 kts 311°
2026-04-22 04:38 42.46210 10.78848 34001 ft 396 kts 311°
2026-04-22 04:39 42.49967 10.73380 34003 ft 396 kts 311°
2026-04-22 04:39 42.53715 10.67911 34001 ft 396 kts 311°
2026-04-22 04:40 42.57467 10.62442 34009 ft 396 kts 311°
2026-04-22 04:40 42.60677 10.57756 34005 ft 396 kts 311°
2026-04-22 04:41 42.64423 10.52272 34014 ft 396 kts 311°
2026-04-22 04:41 42.68164 10.46783 34013 ft 396 kts 311°
2026-04-22 04:42 42.71916 10.41321 34011 ft 396 kts 314°
2026-04-22 04:42 42.76465 10.37014 34009 ft 402 kts 327°
2026-04-22 04:43 42.81340 10.33359 34008 ft 403 kts 327°
2026-04-22 04:43 42.86249 10.29663 34009 ft 402 kts 327°
2026-04-22 04:44 42.91138 10.25967 34008 ft 402 kts 327°
2026-04-22 04:44 42.96035 10.22257 34008 ft 402 kts 326°
2026-04-22 04:45 43.00926 10.18545 34011 ft 402 kts 326°
2026-04-22 04:45 43.05820 10.14832 34016 ft 402 kts 326°
2026-04-22 04:46 43.10701 10.11120 33995 ft 401 kts 326°
2026-04-22 04:46 43.13131 10.09271 33727 ft 398 kts 326°
2026-04-22 04:46 43.15553 10.07423 33108 ft 399 kts 326°
2026-04-22 04:46 43.17986 10.05562 32243 ft 399 kts 327°
2026-04-22 04:47 43.20406 10.03709 31398 ft 399 kts 327°
2026-04-22 04:47 43.22834 10.01850 30527 ft 400 kts 327°
2026-04-22 04:47 43.25284 9.99976 29480 ft 403 kts 327°
2026-04-22 04:47 43.27734 9.98102 28474 ft 403 kts 327°
2026-04-22 04:48 43.30189 9.96221 27387 ft 405 kts 327°
2026-04-22 04:48 43.32634 9.94348 26285 ft 409 kts 327°
2026-04-22 04:48 43.35129 9.92427 25204 ft 411 kts 327°
2026-04-22 04:48 43.37626 9.90500 24160 ft 413 kts 327°
2026-04-22 04:49 43.40135 9.88563 23062 ft 415 kts 327°
2026-04-22 04:49 43.42661 9.86611 21995 ft 415 kts 327°
2026-04-22 04:49 43.45163 9.84681 21203 ft 410 kts 327°
2026-04-22 04:49 43.47638 9.82770 20419 ft 405 kts 327°
2026-04-22 04:50 43.50088 9.80877 19644 ft 402 kts 327°
2026-04-22 04:50 43.52521 9.78995 18881 ft 399 kts 327°
2026-04-22 04:50 43.54651 9.77343 18217 ft 397 kts 327°
2026-04-22 04:50 43.57064 9.75471 17604 ft 401 kts 327°
2026-04-22 04:51 43.59501 9.73582 17209 ft 401 kts 328°
2026-04-22 04:51 43.61922 9.71705 16758 ft 399 kts 328°
2026-04-22 04:51 43.64345 9.69826 16303 ft 397 kts 328°
2026-04-22 04:51 43.66750 9.67956 15862 ft 396 kts 328°
2026-04-22 04:52 43.69143 9.66093 15423 ft 394 kts 328°
2026-04-22 04:52 43.71528 9.64230 14976 ft 393 kts 328°
2026-04-22 04:52 43.73910 9.62368 14537 ft 392 kts 328°
2026-04-22 04:52 43.76278 9.60523 14095 ft 391 kts 328°
2026-04-22 04:53 43.78645 9.58678 13630 ft 390 kts 328°
2026-04-22 04:53 43.80740 9.57041 13231 ft 388 kts 328°
2026-04-22 04:53 43.83142 9.55160 12788 ft 387 kts 328°
2026-04-22 04:53 43.85470 9.53334 12422 ft 380 kts 328°
2026-04-22 04:54 43.87688 9.51596 12294 ft 362 kts 328°
2026-04-22 04:54 43.89827 9.49922 12167 ft 345 kts 328°
2026-04-22 04:54 43.91871 9.48317 12044 ft 330 kts 328°
2026-04-22 04:54 43.93847 9.46761 11918 ft 315 kts 328°
2026-04-22 04:55 43.95694 9.45305 11790 ft 303 kts 328°
2026-04-22 04:55 43.97468 9.43850 11670 ft 290 kts 322°
2026-04-22 04:55 43.98939 9.42053 11547 ft 276 kts 310°
2026-04-22 04:55 44.00059 9.39961 11423 ft 265 kts 303°
2026-04-22 04:56 44.01095 9.37859 11250 ft 256 kts 304°
2026-04-22 04:56 44.01927 9.36186 11160 ft 252 kts 304°
2026-04-22 04:56 44.02940 9.34195 11048 ft 252 kts 309°
2026-04-22 04:56 44.04214 9.32504 10719 ft 258 kts 321°
2026-04-22 04:57 44.05662 9.30981 10203 ft 264 kts 321°
2026-04-22 04:57 44.07195 9.29524 9708 ft 268 kts 335°
2026-04-22 04:57 44.09003 9.29217 9511 ft 264 kts 10°
2026-04-22 04:57 44.10570 9.30426 9401 ft 258 kts 44°
2026-04-22 04:58 44.11704 9.32303 9294 ft 253 kts 49°
2026-04-22 04:58 44.12758 9.34265 9189 ft 253 kts 51°
2026-04-22 04:58 44.13872 9.36142 9085 ft 248 kts 33°
2026-04-22 04:58 44.15413 9.37013 8982 ft 239 kts 358°
2026-04-22 04:59 44.16987 9.36492 8889 ft 233 kts 326°
2026-04-22 04:59 44.18295 9.35161 8790 ft 233 kts 321°
2026-04-22 04:59 44.19587 9.33793 8702 ft 233 kts 322°
2026-04-22 04:59 44.20879 9.32424 8614 ft 233 kts 322°
2026-04-22 05:00 44.22169 9.31058 8521 ft 233 kts 322°
2026-04-22 05:00 44.23462 9.29689 8437 ft 233 kts 322°
2026-04-22 05:00 44.24755 9.28319 8347 ft 233 kts 322°
2026-04-22 05:00 44.26045 9.26954 8264 ft 233 kts 322°
2026-04-22 05:01 44.27281 9.25556 8166 ft 222 kts 312°
2026-04-22 05:01 44.28073 9.23794 8094 ft 210 kts 290°
2026-04-22 05:01 44.28308 9.21807 8014 ft 210 kts 269°
2026-04-22 05:01 44.28245 9.19772 7931 ft 210 kts 269°
2026-04-22 05:02 44.28185 9.17730 7855 ft 211 kts 269°
2026-04-22 05:02 44.28129 9.15684 7773 ft 211 kts 270°
2026-04-22 05:02 44.28075 9.13645 7694 ft 211 kts 270°
2026-04-22 05:02 44.28020 9.11604 7617 ft 210 kts 270°
2026-04-22 05:03 44.27965 9.09557 7535 ft 211 kts 270°
2026-04-22 05:03 44.27910 9.07518 7461 ft 211 kts 270°
2026-04-22 05:03 44.27851 9.05475 7380 ft 211 kts 270°
2026-04-22 05:03 44.27792 9.03431 7300 ft 211 kts 270°
2026-04-22 05:04 44.27735 9.01383 7226 ft 211 kts 270°
2026-04-22 05:04 44.27678 8.99342 7151 ft 210 kts 270°
2026-04-22 05:04 44.27622 8.97298 7068 ft 211 kts 270°
2026-04-22 05:04 44.27565 8.95258 6991 ft 210 kts 270°
2026-04-22 05:05 44.27506 8.93217 6903 ft 210 kts 270°
2026-04-22 05:05 44.27447 8.91175 6836 ft 210 kts 270°
2026-04-22 05:05 44.27390 8.89137 6747 ft 210 kts 270°
2026-04-22 05:05 44.27332 8.87099 6663 ft 211 kts 270°
2026-04-22 05:06 44.27273 8.85099 6615 ft 199 kts 270°
2026-04-22 05:06 44.27216 8.83235 6516 ft 186 kts 270°
2026-04-22 05:06 44.27162 8.81522 6464 ft 165 kts 270°
2026-04-22 05:06 44.27113 8.79997 6397 ft 154 kts 271°
2026-04-22 05:07 44.27069 8.78501 6331 ft 154 kts 271°
2026-04-22 05:07 44.27025 8.77003 6272 ft 154 kts 271°
2026-04-22 05:07 44.26980 8.75508 6210 ft 154 kts 270°
2026-04-22 05:07 44.26935 8.74016 6152 ft 154 kts 270°
2026-04-22 05:08 44.26890 8.72518 6084 ft 154 kts 270°
2026-04-22 05:08 44.26846 8.71026 6040 ft 154 kts 271°
2026-04-22 05:08 44.26951 8.69549 5993 ft 153 kts 285°
2026-04-22 05:08 44.27225 8.68124 5824 ft 152 kts 287°
2026-04-22 05:09 44.27497 8.66715 5690 ft 152 kts 287°
2026-04-22 05:09 44.27772 8.65289 5542 ft 152 kts 287°
2026-04-22 05:09 44.28047 8.63861 5411 ft 153 kts 287°
2026-04-22 05:09 44.28322 8.62432 5272 ft 153 kts 287°
2026-04-22 05:10 44.28739 8.61087 5130 ft 151 kts 308°
2026-04-22 05:10 44.29519 8.60136 5002 ft 149 kts 333°
2026-04-22 05:10 44.30509 8.59743 4766 ft 148 kts 359°
2026-04-22 05:10 44.31520 8.59963 4537 ft 148 kts 17°
2026-04-22 05:11 44.32512 8.60339 4300 ft 148 kts 16°
2026-04-22 05:11 44.33504 8.60707 4063 ft 147 kts 16°
2026-04-22 05:11 44.34454 8.61221 3835 ft 146 kts 30°
2026-04-22 05:11 44.35266 8.62067 3604 ft 146 kts 45°
2026-04-22 05:12 44.35887 8.63177 3390 ft 145 kts 60°
2026-04-22 05:12 44.36384 8.64401 3174 ft 145 kts 60°
2026-04-22 05:12 44.36889 8.65623 2957 ft 145 kts 60°
2026-04-22 05:12 44.37391 8.66836 2738 ft 144 kts 60°
2026-04-22 05:13 44.37890 8.68043 2521 ft 143 kts 60°
2026-04-22 05:13 44.38388 8.69251 2308 ft 143 kts 60°
2026-04-22 05:13 44.38883 8.70456 2096 ft 143 kts 60°
2026-04-22 05:13 44.39367 8.71634 1871 ft 143 kts 60°
2026-04-22 05:14 44.39861 8.72837 1660 ft 143 kts 60°
2026-04-22 05:14 44.40354 8.74039 1442 ft 142 kts 59°
2026-04-22 05:14 44.40845 8.75235 1240 ft 142 kts 59°
2026-04-22 05:14 44.41094 8.76073 1099 ft 142 kts 73°
2026-04-22 05:15 44.41279 8.77658 940 ft 142 kts 82°
2026-04-22 05:15 44.41535 8.78975 731 ft 140 kts 65°
2026-04-22 05:15 44.41907 8.80229 524 ft 141 kts 73°
2026-04-22 05:15 44.41918 8.81598 481 ft 143 kts 104°
2026-04-22 05:16 44.41485 8.82890 90 ft 153 kts 112°
2026-04-22 05:16 44.41130 8.84239 167 ft 153 kts 102°
2026-04-22 05:16 44.40815 8.85719 498 ft 166 kts 107°
2026-04-22 05:16 44.40422 8.87282 663 ft 178 kts 108°
2026-04-22 05:17 44.39994 8.88935 809 ft 183 kts 109°
2026-04-22 05:17 44.39542 8.90689 976 ft 200 kts 109°
2026-04-22 05:17 44.39011 8.92469 1141 ft 202 kts 121°
2026-04-22 05:17 44.37968 8.93795 1357 ft 204 kts 153°
2026-04-22 05:18 44.35231 8.93503 1926 ft 208 kts 204°
2026-04-22 05:18 44.34332 8.92950 2135 ft 209 kts 203°
2026-04-22 05:18 44.32999 8.92134 2439 ft 210 kts 203°
2026-04-22 05:19 44.31652 8.91315 2743 ft 211 kts 202°
2026-04-22 05:19 44.30297 8.90494 2966 ft 213 kts 202°
2026-04-22 05:19 44.28494 8.89403 3013 ft 213 kts 202°
2026-04-22 05:19 44.27577 8.88850 3014 ft 213 kts 202°
2026-04-22 05:20 44.25770 8.87764 3010 ft 214 kts 202°
2026-04-22 05:20 44.24864 8.87219 3009 ft 214 kts 202°
2026-04-22 05:20 44.23496 8.86394 3013 ft 214 kts 202°
2026-04-22 05:20 44.22130 8.85571 3013 ft 214 kts 202°
2026-04-22 05:21 44.20766 8.84750 3012 ft 214 kts 202°
2026-04-22 05:21 44.19404 8.83933 3012 ft 214 kts 202°
2026-04-22 05:21 44.18035 8.83113 3014 ft 214 kts 202°
2026-04-22 05:21 44.16667 8.82290 3014 ft 214 kts 202°
2026-04-22 05:22 44.15301 8.81468 3015 ft 214 kts 202°
2026-04-22 05:22 44.13934 8.80645 3013 ft 213 kts 202°
2026-04-22 05:22 44.12521 8.80099 3026 ft 211 kts 176°
2026-04-22 05:22 44.11223 8.80883 3017 ft 206 kts 131°
2026-04-22 05:23 44.10699 8.82674 3012 ft 203 kts 91°
2026-04-22 05:23 44.10959 8.84589 3012 ft 203 kts 66°
2026-04-22 05:23 44.11799 8.86146 3012 ft 204 kts 39°
2026-04-22 05:23 44.13087 8.86937 3015 ft 206 kts
2026-04-22 05:24 44.14517 8.87095 3008 ft 206 kts
2026-04-22 05:24 44.15950 8.87220 3010 ft 207 kts
2026-04-22 05:24 44.17387 8.87339 3016 ft 207 kts
2026-04-22 05:24 44.18822 8.87456 3012 ft 207 kts
2026-04-22 05:25 44.20258 8.87514 3013 ft 207 kts 355°
2026-04-22 05:25 44.21589 8.86780 3015 ft 210 kts 323°
2026-04-22 05:25 44.22421 8.85126 3013 ft 213 kts 288°
2026-04-22 05:25 44.22401 8.83084 3015 ft 215 kts 250°
2026-04-22 05:26 44.21515 8.81446 3014 ft 215 kts 213°
2026-04-22 05:26 44.20129 8.80776 3012 ft 213 kts 182°
2026-04-22 05:26 44.18649 8.80686 3011 ft 213 kts 180°
2026-04-22 05:26 44.17171 8.80603 3012 ft 213 kts 180°
2026-04-22 05:27 44.15690 8.80517 3014 ft 213 kts 181°
2026-04-22 05:27 44.14211 8.80424 3015 ft 212 kts 181°
2026-04-22 05:27 44.12740 8.80483 3015 ft 211 kts 164°
2026-04-22 05:27 44.11503 8.81481 3020 ft 207 kts 130°
2026-04-22 05:28 44.10916 8.83236 3019 ft 204 kts 95°
2026-04-22 05:28 44.11183 8.85157 3009 ft 203 kts 60°
2026-04-22 05:28 44.12154 8.86509 3011 ft 203 kts 28°
2026-04-22 05:28 44.13523 8.86985 3012 ft 206 kts
2026-04-22 05:29 44.14954 8.87107 3012 ft 206 kts
2026-04-22 05:29 44.16279 8.87762 3011 ft 204 kts 35°
2026-04-22 05:29 44.17187 8.89247 3014 ft 204 kts 64°
2026-04-22 05:29 44.17758 8.91056 3023 ft 204 kts 66°
2026-04-22 05:30 44.18329 8.92865 3013 ft 204 kts 66°
2026-04-22 05:30 44.18901 8.94666 3026 ft 203 kts 66°
2026-04-22 05:30 44.19477 8.96469 3029 ft 204 kts 66°
2026-04-22 05:30 44.20055 8.98277 3021 ft 204 kts 66°
2026-04-22 05:31 44.20630 9.00087 3025 ft 204 kts 66°
2026-04-22 05:31 44.21288 9.01831 3030 ft 203 kts 51°
2026-04-22 05:31 44.22280 9.03244 3027 ft 203 kts 45°
2026-04-22 05:31 44.23290 9.04627 3033 ft 204 kts 45°
2026-04-22 05:32 44.24307 9.06018 3031 ft 204 kts 44°
2026-04-22 05:32 44.25322 9.07410 3030 ft 205 kts 44°
2026-04-22 05:32 44.26340 9.08807 3030 ft 205 kts 45°
2026-04-22 05:32 44.27353 9.10199 3031 ft 204 kts 45°
2026-04-22 05:33 44.28368 9.11592 3033 ft 204 kts 45°
2026-04-22 05:33 44.29368 9.12965 3034 ft 204 kts 45°
2026-04-22 05:33 44.30383 9.14361 3034 ft 205 kts 45°
2026-04-22 05:33 44.31508 9.15560 3034 ft 205 kts 24°
2026-04-22 05:34 44.32914 9.15820 3033 ft 206 kts 352°
2026-04-22 05:34 44.34204 9.14976 3040 ft 205 kts 318°
2026-04-22 05:34 44.34911 9.13419 3030 ft 179 kts 288°
2026-04-22 05:34 44.35249 9.11876 3023 ft 154 kts 289°
2026-04-22 05:35 44.35560 9.10497 3048 ft 147 kts 289°
2026-04-22 05:35 44.35862 9.09131 3047 ft 147 kts 288°
2026-04-22 05:35 44.36162 9.07765 3036 ft 147 kts 288°
2026-04-22 05:35 44.36459 9.06398 3043 ft 147 kts 288°
2026-04-22 05:36 44.36755 9.05034 2978 ft 146 kts 289°
2026-04-22 05:36 44.37050 9.03678 2833 ft 145 kts 289°
2026-04-22 05:36 44.37342 9.02327 2653 ft 145 kts 288°
2026-04-22 05:36 44.37633 9.00985 2455 ft 144 kts 288°
2026-04-22 05:37 44.37922 8.99646 2252 ft 144 kts 288°
2026-04-22 05:37 44.38174 8.98480 2077 ft 144 kts 289°
2026-04-22 05:37 44.38425 8.97317 1895 ft 143 kts 289°
2026-04-22 05:37 44.38713 8.95984 1668 ft 142 kts 289°
2026-04-22 05:38 44.39000 8.94654 1447 ft 144 kts 289°
2026-04-22 05:38 44.39288 8.93322 1226 ft 143 kts 289°
2026-04-22 05:38 44.39574 8.91992 1015 ft 142 kts 288°
2026-04-22 05:38 44.39861 8.90660 811 ft 143 kts 288°
2026-04-22 05:39 44.40144 8.89347 623 ft 140 kts 289°
2026-04-22 05:39 44.40424 8.88045 424 ft 140 kts 289°
2026-04-22 05:39 44.40701 8.86752 232 ft 139 kts 289°
2026-04-22 05:39 44.40975 8.85455 51 ft 139 kts 288°
2026-04-22 05:40 44.41192 8.84221 22 ft 80 kts 283°
2026-04-22 05:40 44.41226 8.83916 20 ft 17 kts 247°
2026-04-22 05:40 44.41270 8.83823 20 ft 19 kts 327°
2026-04-22 05:40 44.41390 8.83760 21 ft 14 kts 28°
2026-04-22 05:41 44.41409 8.83886 19 ft 15 kts 101°
2026-04-22 05:41 44.41382 8.84027 21 ft 16 kts 105°
2026-04-22 05:41 44.41350 8.84190 21 ft 19 kts 105°
2026-04-22 05:41 44.41315 8.84379 20 ft 20 kts 96°
2026-04-22 05:42 44.41375 8.84502 20 ft 16 kts 55°
2026-04-22 05:42 44.41420 8.84644 20 ft 16 kts 105°
2026-04-22 05:42 44.41382 8.84798 22 ft 17 kts 96°
2026-04-22 05:42 44.41427 8.84912 20 ft 7 kts 60°
2026-04-22 05:43 44.41435 8.84933 20 ft 0 kts 63°